TimeEST,TemperatureF,Dew PointF,Humidity,Sea Level PressureIn,VisibilityMPH,Wind Direction,Wind SpeedMPH,Gust SpeedMPH,PrecipitationIn,Events,Conditions,WindDirDegrees,DateUTC
12:53 AM,51.1,37.9,61,30.17,10.0,Calm,Calm,-,N/A,,Clear,0,2012-11-22 05:53:00
1:53 AM,48.0,39.9,74,30.18,10.0,Calm,Calm,-,N/A,,Clear,0,2012-11-22 06:53:00
2:53 AM,48.0,39.9,74,30.18,10.0,Calm,Calm,-,N/A,,Clear,0,2012-11-22 07:53:00
3:53 AM,46.0,39.9,79,30.19,10.0,Calm,Calm,-,N/A,,Clear,0,2012-11-22 08:53:00
4:53 AM,46.0,39.9,79,30.20,10.0,Calm,Calm,-,N/A,,Clear,0,2012-11-22 09:53:00
5:53 AM,44.1,39.9,85,30.22,9.0,Calm,Calm,-,N/A,,Clear,0,2012-11-22 10:53:00
6:53 AM,43.0,37.9,82,30.24,10.0,Calm,Calm,-,N/A,,Clear,0,2012-11-22 11:53:00
7:53 AM,45.0,37.9,76,30.26,10.0,Calm,Calm,-,N/A,,Clear,0,2012-11-22 12:53:00
8:53 AM,50.0,37.0,61,30.28,10.0,East,5.8,-,N/A,,Clear,80,2012-11-22 13:53:00
9:53 AM,54.0,35.1,49,30.29,10.0,ENE,3.5,-,N/A,,Clear,70,2012-11-22 14:53:00
10:53 AM,57.0,33.1,40,30.28,10.0,Calm,Calm,-,N/A,,Clear,0,2012-11-22 15:53:00
11:53 AM,60.1,32.0,35,30.26,10.0,Calm,Calm,-,N/A,,Clear,0,2012-11-22 16:53:00
12:53 PM,61.0,33.1,35,30.22,10.0,WSW,5.8,-,N/A,,Clear,240,2012-11-22 17:53:00
1:53 PM,63.0,35.1,35,30.20,10.0,West,6.9,-,N/A,,Clear,260,2012-11-22 18:53:00
2:53 PM,64.0,35.1,34,30.18,10.0,West,6.9,-,N/A,,Clear,280,2012-11-22 19:53:00
3:53 PM,64.0,35.1,34,30.17,10.0,West,5.8,-,N/A,,Clear,280,2012-11-22 20:53:00
4:53 PM,62.1,36.0,38,30.18,10.0,SW,3.5,-,N/A,,Clear,230,2012-11-22 21:53:00
5:53 PM,59.0,36.0,42,30.19,10.0,SSW,3.5,-,N/A,,Clear,210,2012-11-22 22:53:00
6:53 PM,55.9,36.0,47,30.20,10.0,SW,3.5,-,N/A,,Clear,220,2012-11-22 23:53:00
7:53 PM,55.0,35.1,47,30.20,10.0,SW,3.5,-,N/A,,Clear,220,2012-11-23 00:53:00
8:53 PM,55.0,35.1,47,30.20,10.0,SW,3.5,-,N/A,,Clear,230,2012-11-23 01:53:00
9:53 PM,51.1,35.1,54,30.20,10.0,Calm,Calm,-,N/A,,Clear,0,2012-11-23 02:53:00
10:53 PM,51.1,35.1,54,30.20,10.0,Calm,Calm,-,N/A,,Clear,0,2012-11-23 03:53:00
11:53 PM,48.0,37.0,66,30.19,10.0,Calm,Calm,-,N/A,,Clear,0,2012-11-23 04:53:00